CW4797 Weather Reports


Display with metric or nautical units.
time (UTC)temp
F
wind
direction
speed
MPH
gust
MPH
rain 1hr
in
rain 24hr
in
rain mn
in
humidity
%
barometer
mb
20190221071538 21 269 0.0 0.0 0.00 0.00 0.00 90 1018.0
20190221070029 21 269 0.0 1.0 0.00 0.00 0.00 90 1017.6
20190221064531 21 269 0.0 1.0 0.00 0.00 0.00 90 1018.4
20190221063014 21 269 0.0 1.0 0.00 0.00 0.00 90 1018.8
20190221061504 21 269 0.0 1.0 0.00 0.00 0.00 89 1019.5
20190221060132 21 269 0.0 1.0 0.00 0.00 0.00 89 1020.3
20190221054656 21 269 0.0 2.0 0.00 0.00 0.00 88 1020.6
20190221053128 21 269 0.0 1.0 0.00 0.00 0.00 87 1021.6
20190221051630 21 269 0.0 1.0 0.00 0.00 0.00 86 1021.8
20190221050241 22 269 0.0 2.0 0.00 0.00 0.00 84 1022.2
20190221044631 22 269 0.0 2.0 0.00 0.00 0.00 81 1022.6
20190221043121 23 265 0.0 2.0 0.00 0.00 0.00 75 1023.5
20190221041546 23 260 1.0 3.0 0.00 0.00 0.00 66 1024.0
20190221040107 24 261 1.0 2.0 0.00 0.00 0.00 59 1024.3
20190221034532 24 261 1.0 3.0 0.00 0.00 0.00 57 1024.7
20190221033036 24 241 0.0 3.0 0.00 0.00 0.00 56 1024.8
20190221031546 24 241 1.0 3.0 0.00 0.00 0.00 56 1025.0
20190221030038 24 241 1.0 3.0 0.00 0.00 0.00 55 1025.6
20190221024507 24 240 1.0 3.0 0.00 0.00 0.00 54 1025.9
20190221023004 24 233 1.0 3.0 0.00 0.00 0.00 54 1026.4
20190221021659 24 232 1.0 3.0 0.00 0.00 0.00 54 1026.7
20190221020213 24 258 1.0 3.0 0.00 0.00 0.00 55 1027.0
20190221014635 24 258 0.0 2.0 0.00 0.00 0.00 53 1027.2
20190221013221 24 258 1.0 3.0 0.00 0.00 0.00 52 1027.0
20190221011634 24 258 1.0 3.0 0.00 0.00 0.00 52 1027.3
20190221010146 24 258 1.0 3.0 0.00 0.00 0.00 51 1027.2
20190221004546 24 258 1.0 3.0 0.00 0.00 0.00 50 1027.9
20190221003108 24 288 1.0 2.0 0.00 0.00 0.00 50 1028.2
20190221001611 24 288 0.0 2.0 0.00 0.00 0.00 50 1028.6
20190221000109 24 288 1.0 2.0 0.00 0.00 0.00 51 1029.0
20190220234532 25 288 0.0 2.0 0.00 0.00 0.00 50 1029.0
20190220233016 25 288 0.0 2.0 0.00 0.00 0.00 49 1029.3
20190220231553 25 232 0.0 2.0 0.00 0.00 0.00 48 1029.2
20190220230020 25 232 1.0 3.0 0.00 0.00 0.00 46 1028.8
20190220224511 25 283 1.0 3.0 0.00 0.00 0.00 45 1028.7
20190220223159 25 252 1.0 3.0 0.00 0.00 0.00 45 1028.8
20190220221702 25 258 1.0 3.0 0.00 0.00 0.00 46 1029.6
20190220220236 26 295 0.0 2.0 0.00 0.00 0.00 44 1029.4
20190220214610 26 334 0.0 2.0 0.00 0.00 0.00 44 1029.6
20190220213129 26 334 0.0 2.0 0.00 0.00 0.00 42 1029.5
20190220211553 26 334 0.0 2.0 0.00 0.00 0.00 40 1029.3
20190220210107 26 295 0.0 2.0 0.00 0.00 0.00 39 1029.7
20190220204626 26 288 0.0 1.0 0.00 0.00 0.00 41 1030.0
20190220203038 26 259 1.0 3.0 0.00 0.00 0.00 41 1030.0
20190220201549 26 269 1.0 3.0 0.00 0.00 0.00 39 1030.1
20190220200041 26 355 0.0 4.0 0.00 0.00 0.00 40 1030.3
20190220194531 26 332 0.0 3.0 0.00 0.00 0.00 40 1030.4
20190220193010 26 162 1.0 5.0 0.00 0.00 0.00 40 1030.8
20190220191510 26 11 1.0 3.0 0.00 0.00 0.00 42 1031.3
20190220190314 26 318 0.0 4.0 0.00 0.00 0.00 45 1031.5
20190220184650 26 269 0.0 3.0 0.00 0.01 0.00 44 1031.4
20190220183143 25 252 1.0 3.0 0.00 0.01 0.00 44 1031.5
20190220181627 25 242 2.0 4.0 0.00 0.01 0.00 46 1031.7
20190220180135 25 219 1.0 4.0 0.00 0.01 0.00 46 1031.7
20190220174614 25 242 1.0 4.0 0.00 0.03 0.00 46 1031.7
20190220173123 25 211 1.0 5.0 0.00 0.03 0.00 45 1032.1
20190220171554 25 238 1.0 4.0 0.00 0.03 0.00 45 1032.4
20190220170119 25 217 2.0 4.0 0.00 0.03 0.00 43 1032.8
20190220164532 24 224 2.0 4.0 0.00 0.03 0.00 48 1033.0
20190220163023 23 267 1.0 4.0 0.00 0.03 0.00 45 1033.3
20190220161525 22 269 0.0 4.0 0.00 0.03 0.00 48 1033.5
20190220160006 22 244 1.0 3.0 0.00 0.03 0.00 48 1033.6
20190220154504 22 51 0.0 2.0 0.00 0.03 0.00 47 1033.7
20190220153159 22 259 1.0 3.0 0.00 0.03 0.00 49 1033.8
20190220151710 21 9 1.0 2.0 0.00 0.03 0.00 49 1034.0
20190220150131 20 5 0.0 2.0 0.00 0.03 0.00 50 1034.4
20190220144617 19 242 1.0 2.0 0.00 0.03 0.00 52 1034.8
20190220143119 17 242 0.0 3.0 0.00 0.03 0.00 54 1034.9
20190220141743 15 290 0.0 2.0 0.00 0.03 0.00 57 1034.9
20190220140106 14 335 0.0 2.0 0.00 0.03 0.00 59 1034.6
20190220134540 12 335 0.0 2.0 0.00 0.03 0.00 61 1034.6
20190220133111 11 291 0.0 2.0 0.00 0.03 0.00 63 1034.9
20190220131528 10 260 0.0 2.0 0.00 0.03 0.00 68 1035.0
20190220130020 10 260 0.0 1.0 0.00 0.03 0.00 65 1034.9
20190220124524 9 260 0.0 2.0 0.00 0.03 0.00 65 1034.7
20190220123011 8 260 0.0 1.0 0.00 0.03 0.00 68 1034.1
20190220121652 7 260 0.0 1.0 0.00 0.03 0.00 69 1033.6
20190220120253 7 260 0.0 1.0 0.00 0.03 0.00 69 1033.5
20190220114731 7 260 0.0 0.0 0.00 0.03 0.00 68 1033.4
20190220113146 7 260 0.0 1.0 0.00 0.03 0.00 67 1033.2
20190220111615 6 260 0.0 1.0 0.00 0.03 0.00 67 1033.1
20190220110120 6 260 0.0 2.0 0.00 0.03 0.00 67 1033.3
20190220104623 7 260 0.0 2.0 0.00 0.03 0.00 66 1033.2
20190220103053 7 260 0.0 0.0 0.00 0.03 0.00 64 1033.2
20190220101603 8 260 0.0 1.0 0.00 0.03 0.00 62 1033.0
20190220100044 9 260 0.0 2.0 0.00 0.03 0.00 61 1033.1
20190220094600 9 260 0.0 1.0 0.00 0.03 0.00 61 1033.2
20190220093042 9 260 0.0 1.0 0.00 0.03 0.00 60 1033.3
20190220091509 10 260 0.0 2.0 0.00 0.03 0.00 59 1033.2
20190220090005 10 260 0.0 2.0 0.00 0.03 0.00 60 1033.0
20190220084719 9 260 0.0 2.0 0.00 0.03 0.00 61 1033.0
20190220083129 9 260 1.0 2.0 0.00 0.03 0.00 60 1032.8
20190220081610 10 260 1.0 3.0 0.00 0.03 0.00 59 1033.0
20190220080134 10 262 0.0 3.0 0.00 0.03 0.00 58 1033.0
20190220074616 10 262 1.0 2.0 0.00 0.03 0.00 58 1033.3
20190220073056 10 262 1.0 3.0 0.00 0.03 0.00 57 1033.4